Weather History for Warrensburg, MO

Change the Weather History Date:

Monday, August 26, 2013

  Actual Average (KSZL) Record (KSZL)
Temperature  
Mean Temperature 80 °F -  
Max Temperature 91 °F 86 °F 102 °F (2003)
Min Temperature 69 °F 66 °F 56 °F (2008)
Cooling Degree Days 15    
Growing Degree Days 30 (Base 50)    
Moisture  
Dew Point 68 °F    
Average Humidity 68    
Maximum Humidity 94    
Minimum Humidity 46    
Precipitation  
Precipitation 0.00 in - - ()
Sea Level Pressure  
Sea Level Pressure 30.14 in    
Wind  
Wind Speed 2 mph (SSW)    
Max Wind Speed 14 mph    
Max Gust Speed 18 mph    
Visibility 10 miles    
Events      
Averages and records for this station are not official NWS values.
T = Trace of Precipitation, MM = Missing Value Source: NWS Daily Summary

Daily Weather History Graph

Daily Weather History Graph

Search for Another Location

Airport:

Trip Planner

Search our weather history database for the weather conditions in past years. The results will help you decide how hot, cold, wet, or windy it might be!

Date:

Astronomy

Aug. 26, 2013 Rise Set
Actual Time 6:39 AM CDT 7:54 PM CDT
Civil Twilight 6:11 AM CDT 8:21 PM CDT
Nautical Twilight 5:38 AM CDT 8:54 PM CDT
Astronomical Twilight 5:03 AM CDT 9:28 PM CDT
Moon 11:09 PM CDT 12:37 PM CDT
Length of Visible Light 14h 10m
Length of Day
13h 14m
Waning Gibbous, 66% of the Moon is Illuminated
Aug 26
Waning Gibbous
Aug 28
Last Quarter
Sep 5
New
Sep 12
First Quarter
Sep 19
Full

Hourly Weather History & Observations

Time (CDT) Temp. Heat Index Dew Point Humidity Pressure Visibility Wind Dir Wind Speed Gust Speed Precip Events Conditions
12:35 AM 73.4 °F - 68.0 °F 83% 30.17 in 10.0 mi Calm Calm - N/A   Clear
12:55 AM 73.4 °F - 68.0 °F 83% 30.17 in 10.0 mi Calm Calm - N/A   Clear
1:15 AM 71.6 °F - 68.0 °F 88% 30.17 in 10.0 mi Calm Calm - N/A   Clear
1:35 AM 71.6 °F - 68.0 °F 88% 30.17 in 10.0 mi Calm Calm - N/A   Clear
1:55 AM 71.6 °F - 68.0 °F 88% 30.17 in 10.0 mi Calm Calm - N/A   Clear
2:15 AM 71.6 °F - 68.0 °F 88% 30.16 in 10.0 mi Calm Calm - N/A   Clear
2:35 AM 71.6 °F - 68.0 °F 88% 30.15 in 10.0 mi Calm Calm - N/A   Clear
2:55 AM 71.6 °F - 66.2 °F 83% 30.16 in 10.0 mi Calm Calm - N/A   Clear
3:15 AM 69.8 °F - 66.2 °F 88% 30.16 in 10.0 mi Calm Calm - N/A   Clear
3:35 AM 71.6 °F - 66.2 °F 83% 30.16 in 10.0 mi Calm Calm - N/A   Clear
3:55 AM 71.6 °F - 66.2 °F 83% 30.15 in 10.0 mi Calm Calm - N/A   Clear
4:15 AM 71.6 °F - 68.0 °F 88% 30.15 in 10.0 mi Calm Calm - N/A   Clear
4:35 AM 71.6 °F - 68.0 °F 88% 30.15 in 10.0 mi Calm Calm - N/A   Clear
4:55 AM 71.6 °F - 68.0 °F 88% 30.15 in 10.0 mi Calm Calm - N/A   Clear
5:15 AM 71.6 °F - 68.0 °F 88% 30.16 in 10.0 mi Calm Calm - N/A   Clear
5:35 AM 71.6 °F - 68.0 °F 88% 30.16 in 10.0 mi Calm Calm - N/A   Clear
5:55 AM 71.6 °F - 68.0 °F 88% 30.16 in 10.0 mi Calm Calm - N/A   Clear
6:15 AM 71.6 °F - 68.0 °F 88% 30.16 in 10.0 mi Calm Calm - N/A   Clear
6:35 AM 69.8 °F - 68.0 °F 94% 30.17 in 10.0 mi Calm Calm - N/A   Clear
6:55 AM 69.8 °F - 66.2 °F 88% 30.18 in 7.0 mi Calm Calm - N/A   Clear
7:15 AM 69.8 °F - 68.0 °F 94% 30.18 in 7.0 mi Calm Calm - N/A   Clear
7:35 AM 71.6 °F - 68.0 °F 88% 30.18 in 10.0 mi Calm Calm - N/A   Clear
8:15 AM 73.4 °F - 68.0 °F 83% 30.19 in 7.0 mi Calm Calm - N/A   Clear
8:35 AM 77.0 °F - 69.8 °F 78% 30.19 in 10.0 mi Calm Calm - N/A   Clear
8:55 AM 78.8 °F - 69.8 °F 74% 30.19 in 10.0 mi South 8.1 mph - N/A   Clear
9:15 AM 78.8 °F - 69.8 °F 74% 30.20 in 10.0 mi SSW 10.4 mph - N/A   Clear
9:35 AM 80.6 °F 83.9 °F 69.8 °F 70% 30.19 in 10.0 mi South 8.1 mph - N/A   Clear
9:55 AM 80.6 °F 83.9 °F 69.8 °F 70% 30.19 in 10.0 mi SSW 11.5 mph - N/A   Clear
10:15 AM 82.4 °F 85.4 °F 68.0 °F 62% 30.20 in 10.0 mi SW 13.8 mph 18.4 mph N/A   Clear
10:35 AM 84.2 °F 88.4 °F 69.8 °F 62% 30.19 in 10.0 mi SSW 8.1 mph 18.4 mph N/A   Clear
10:55 AM 86.0 °F 89.4 °F 68.0 °F 55% 30.18 in 10.0 mi SSW 11.5 mph - N/A   Clear
11:15 AM 86.0 °F 89.4 °F 68.0 °F 55% 30.18 in 10.0 mi SW 6.9 mph 17.3 mph N/A   Clear
11:35 AM 86.0 °F 89.4 °F 68.0 °F 55% 30.18 in 10.0 mi SW 11.5 mph 18.4 mph N/A   Clear
11:55 AM 87.8 °F 91.4 °F 68.0 °F 52% 30.17 in 10.0 mi SW 10.4 mph - N/A   Clear
12:15 PM 87.8 °F 91.4 °F 68.0 °F 52% 30.17 in 10.0 mi Calm Calm - N/A   Clear
12:35 PM 89.6 °F 93.4 °F 68.0 °F 49% 30.17 in 10.0 mi SW 5.8 mph - N/A   Clear
12:55 PM 89.6 °F 93.4 °F 68.0 °F 49% 30.16 in 10.0 mi SSW 12.7 mph - N/A   Clear
1:15 PM 89.6 °F 93.4 °F 68.0 °F 49% 30.15 in 10.0 mi SSW 13.8 mph 17.3 mph N/A   Clear
1:35 PM 89.6 °F 93.4 °F 68.0 °F 49% 30.14 in 10.0 mi Calm Calm - N/A   Clear
1:55 PM 89.6 °F 93.4 °F 68.0 °F 49% 30.14 in 10.0 mi SW 9.2 mph - N/A   Clear
2:15 PM 91.4 °F 95.4 °F 68.0 °F 46% 30.13 in 10.0 mi Calm Calm - N/A   Scattered Clouds
2:35 PM 89.6 °F 94.7 °F 69.8 °F 52% 30.12 in 10.0 mi SSW 8.1 mph - N/A   Scattered Clouds
2:55 PM 91.4 °F 95.4 °F 68.0 °F 46% 30.12 in 10.0 mi South 3.5 mph - N/A   Scattered Clouds
3:15 PM 91.4 °F 95.4 °F 68.0 °F 46% 30.11 in 10.0 mi South 3.5 mph - N/A   Clear
3:35 PM 91.4 °F 95.4 °F 68.0 °F 46% 30.11 in 10.0 mi Calm Calm - N/A   Clear
3:55 PM 91.4 °F 95.4 °F 68.0 °F 46% 30.10 in 10.0 mi Calm Calm - N/A   Clear
4:15 PM 91.4 °F 95.4 °F 68.0 °F 46% 30.10 in 10.0 mi Calm Calm - N/A   Clear
4:35 PM 91.4 °F 95.4 °F 68.0 °F 46% 30.09 in 10.0 mi SSW 11.5 mph - N/A   Clear
4:55 PM 91.4 °F 95.4 °F 68.0 °F 46% 30.09 in 10.0 mi SSW 5.8 mph - N/A   Scattered Clouds
5:15 PM 89.6 °F 93.4 °F 68.0 °F 49% 30.09 in 10.0 mi Calm Calm - N/A   Scattered Clouds
5:35 PM 89.6 °F 93.4 °F 68.0 °F 49% 30.09 in 10.0 mi South 6.9 mph - N/A   Scattered Clouds
5:55 PM 89.6 °F 94.7 °F 69.8 °F 52% 30.09 in 10.0 mi Calm Calm - N/A   Clear
6:15 PM 87.8 °F 91.4 °F 68.0 °F 52% 30.09 in 10.0 mi Calm Calm - N/A   Clear
6:35 PM 87.8 °F 91.4 °F 68.0 °F 52% 30.08 in 10.0 mi Calm Calm - N/A   Clear
6:55 PM 87.8 °F 91.4 °F 68.0 °F 52% 30.08 in 10.0 mi Calm Calm - N/A   Clear
7:15 PM 86.0 °F 89.4 °F 68.0 °F 55% 30.08 in 10.0 mi Calm Calm - N/A   Clear
7:35 PM 84.2 °F 87.3 °F 68.0 °F 58% 30.08 in 10.0 mi Calm Calm - N/A   Clear
7:55 PM 82.4 °F 86.3 °F 69.8 °F 66% 30.08 in 10.0 mi Calm Calm - N/A   Clear
8:15 PM 82.4 °F 86.3 °F 69.8 °F 66% 30.08 in 10.0 mi Calm Calm - N/A   Clear
8:35 PM 80.6 °F 83.9 °F 69.8 °F 70% 30.08 in 10.0 mi Calm Calm - N/A   Clear
8:55 PM 80.6 °F 83.9 °F 69.8 °F 70% 30.09 in 10.0 mi Calm Calm - N/A   Clear
9:15 PM 78.8 °F - 69.8 °F 74% 30.08 in 10.0 mi Calm Calm - N/A   Clear
9:35 PM 78.8 °F - 69.8 °F 74% 30.08 in 10.0 mi Calm Calm - N/A   Clear
9:55 PM 77.0 °F - 69.8 °F 78% 30.08 in 10.0 mi Calm Calm - N/A   Clear
10:15 PM 77.0 °F - 68.0 °F 74% 30.08 in 10.0 mi Calm Calm - N/A   Clear
10:35 PM 78.8 °F - 68.0 °F 69% 30.08 in 10.0 mi Calm Calm - N/A   Clear
10:55 PM 77.0 °F - 68.0 °F 74% 30.08 in 10.0 mi Calm Calm - N/A   Clear
11:15 PM 77.0 °F - 68.0 °F 74% 30.08 in 10.0 mi South 6.9 mph - N/A   Clear
11:35 PM 77.0 °F - 68.0 °F 74% 30.08 in 10.0 mi Calm Calm - N/A   Clear
11:55 PM 77.0 °F - 68.0 °F 74% 30.07 in 10.0 mi Calm Calm - N/A   Clear